Location: Sungai Bunut
(2.6333°N, 113.7333°E)
Time: 08:54:51
(UTC+00:00)

Transit 2A - Pass Details

Date: 04 December 2023
Orbit: 599 x 953 km, 66.7° (Epoch: 01 March)

Event Time Altitude Azimuth Distance (km) Brightness Sun altitude
Rises 17:42:48 0° 360° (N) 2,910 - -61.1°
Reaches altitude 10° 17:45:14 10° 11° (NNE) 2,045 - -60.6°
Maximum altitude 17:49:13 28° 71° (ENE) 1,261 - -59.9°
Drops below altitude 10° 17:53:31 10° 130° (SE) 2,225 - -59.1°
Sets 17:56:17 0° 141° (SE) 3,216 - -58.6°
